International Skating Union - Official Site

ISU World Cup Hamar
January 31 - February 1, 2015

Draw | Lap Times | Index | World Cup

Referee: Karl  SKOOG  (SWE)
Starter: Tom Vidar  JOHANSSON  (NOR)
StartTime: EndTime: Air Temp: Ice Temp: Humidity:
14:55 15:57 16.3℃ -6.6℃ 24.8%
Result 5000m Men Division A
Rankings as of Jan 31 2015 3:58PM
Rank: No.: Name: Nation: Time: Behind: Points:
1 145 Jorrit  Bergsma NED NED 6:17.89200m - 19.05 - (19.0)
600m - 48.44 - (29.3)
1000m - 1:18.01 - (29.5)
1400m - 1:47.58 - (29.5)
1800m - 2:17.37 - (29.7)
2200m - 2:47.33 - (29.9)
2600m - 3:17.15 - (29.8)
3000m - 3:47.20 - (30.0)
3400m - 4:17.00 - (29.8)
3800m - 4:46.92 - (29.9)
4200m - 5:17.03 - (30.1)
4600m - 5:47.24 - (30.2)
5000m - 6:17.89 - (30.6)
100
2 148 Douwe  de Vries NED NED 6:23.04200m - 19.13 - (19.1)
600m - 48.81 - (29.6)
1000m - 1:18.57 - (29.7)
1400m - 1:48.41 - (29.8)
1800m - 2:18.11 - (29.7)
2200m - 2:48.29 - (30.1)
2600m - 3:18.77 - (30.4)
3000m - 3:49.39 - (30.6)
3400m - 4:20.17 - (30.7)
3800m - 4:50.80 - (30.6)
4200m - 5:21.48 - (30.6)
4600m - 5:52.30 - (30.8)
5000m - 6:23.04 - (30.7)
5.15 80
3 158 Sverre  Lunde Pedersen NOR NOR 6:23.21200m - 18.70 - (18.7)
600m - 48.77 - (30.0)
1000m - 1:19.00 - (30.2)
1400m - 1:48.96 - (29.9)
1800m - 2:19.12 - (30.1)
2200m - 2:49.33 - (30.2)
2600m - 3:19.60 - (30.2)
3000m - 3:50.04 - (30.4)
3400m - 4:20.33 - (30.2)
3800m - 4:50.76 - (30.4)
4200m - 5:21.27 - (30.5)
4600m - 5:51.87 - (30.6)
5000m - 6:23.21 - (31.3)
5.32 70
4 125 Patrick  Beckert GER GER 6:23.99200m - 19.15 - (19.1)
600m - 48.98 - (29.8)
1000m - 1:19.49 - (30.5)
1400m - 1:50.01 - (30.5)
1800m - 2:20.33 - (30.3)
2200m - 2:50.73 - (30.4)
2600m - 3:21.22 - (30.4)
3000m - 3:51.72 - (30.5)
3400m - 4:22.17 - (30.4)
3800m - 4:52.73 - (30.5)
4200m - 5:23.31 - (30.5)
4600m - 5:53.63 - (30.3)
5000m - 6:23.99 - (30.3)
6.10 60
5 173 Denis  Yuskov RUS RUS 6:24.20200m - 18.89 - (18.8)
600m - 48.43 - (29.6)
1000m - 1:18.20 - (29.7)
1400m - 1:48.20 - (29.9)
1800m - 2:18.04 - (29.8)
2200m - 2:48.07 - (30.0)
2600m - 3:18.19 - (30.1)
3000m - 3:48.30 - (30.1)
3400m - 4:18.96 - (30.6)
3800m - 4:50.80 - (31.8)
4200m - 5:22.99 - (32.1)
4600m - 5:53.74 - (30.7)
5000m - 6:24.20 - (30.4)
6.31 50
6 168 Aleksandr  Rumyantsev RUS RUS 6:25.15200m - 19.37 - (19.3)
600m - 49.84 - (30.4)
1000m - 1:19.95 - (30.1)
1400m - 1:50.00 - (30.0)
1800m - 2:20.37 - (30.3)
2200m - 2:50.51 - (30.1)
2600m - 3:20.61 - (30.1)
3000m - 3:50.64 - (30.0)
3400m - 4:20.73 - (30.0)
3800m - 4:50.94 - (30.2)
4200m - 5:21.72 - (30.7)
4600m - 5:53.00 - (31.2)
5000m - 6:25.15 - (32.1)
7.26 45
7 151 Wouter  olde Heuvel NED NED 6:25.67200m - 18.92 - (18.9)
600m - 48.30 - (29.3)
1000m - 1:18.37 - (30.0)
1400m - 1:48.61 - (30.2)
1800m - 2:18.81 - (30.2)
2200m - 2:49.08 - (30.2)
2600m - 3:19.69 - (30.6)
3000m - 3:50.38 - (30.7)
3400m - 4:21.40 - (31.0)
3800m - 4:52.63 - (31.2)
4200m - 5:23.75 - (31.1)
4600m - 5:54.75 - (31.0)
5000m - 6:25.67 - (30.9)
7.78 40
8 105 Bart  Swings BEL BEL 6:26.11200m - 19.16 - (19.1)
600m - 49.24 - (30.0)
1000m - 1:19.54 - (30.3)
1400m - 1:49.84 - (30.3)
1800m - 2:20.03 - (30.1)
2200m - 2:50.58 - (30.5)
2600m - 3:21.02 - (30.4)
3000m - 3:51.47 - (30.4)
3400m - 4:21.94 - (30.4)
3800m - 4:52.51 - (30.5)
4200m - 5:23.20 - (30.6)
4600m - 5:54.36 - (31.1)
5000m - 6:26.11 - (31.7)
8.22 35
9 143 Seung-Hoon  Lee KOR KOR 6:28.83200m - 19.69 - (19.7)
600m - 50.46 - (30.7)
1000m - 1:21.07 - (30.6)
1400m - 1:51.79 - (30.7)
1800m - 2:22.46 - (30.6)
2200m - 2:53.33 - (30.8)
2600m - 3:24.14 - (30.8)
3000m - 3:55.21 - (31.0)
3400m - 4:26.04 - (30.8)
3800m - 4:56.75 - (30.7)
4200m - 5:27.23 - (30.4)
4600m - 5:58.05 - (30.8)
5000m - 6:28.83 - (30.7)
10.94 30
10 153 Håvard  Bøkko NOR NOR 6:31.04200m - 18.68 - (18.6)
600m - 48.78 - (30.1)
1000m - 1:19.20 - (30.4)
1400m - 1:49.74 - (30.5)
1800m - 2:20.43 - (30.7)
2200m - 2:51.13 - (30.7)
2600m - 3:21.88 - (30.7)
3000m - 3:52.90 - (31.0)
3400m - 4:23.97 - (31.0)
3800m - 4:55.39 - (31.4)
4200m - 5:26.97 - (31.5)
4600m - 5:58.83 - (31.8)
5000m - 6:31.04 - (32.2)
13.15 25
11 146 Bob  de Jong NED NED 6:31.68200m - 19.41 - (19.4)
600m - 49.34 - (29.9)
1000m - 1:19.91 - (30.5)
1400m - 1:50.68 - (30.7)
1800m - 2:21.07 - (30.3)
2200m - 2:51.66 - (30.5)
2600m - 3:22.34 - (30.6)
3000m - 3:53.32 - (30.9)
3400m - 4:24.66 - (31.3)
3800m - 4:56.44 - (31.7)
4200m - 5:28.01 - (31.5)
4600m - 5:59.78 - (31.7)
5000m - 6:31.68 - (31.8)
13.79 21
12 170 Yevgeny  Seryaev RUS RUS 6:31.98200m - 19.23 - (19.2)
600m - 49.32 - (30.0)
1000m - 1:18.73 - (29.4)
1400m - 1:49.02 - (30.2)
1800m - 2:19.41 - (30.3)
2200m - 2:49.94 - (30.5)
2600m - 3:20.66 - (30.7)
3000m - 3:51.82 - (31.1)
3400m - 4:23.32 - (31.5)
3800m - 4:55.00 - (31.6)
4200m - 5:27.02 - (32.0)
4600m - 5:59.38 - (32.3)
5000m - 6:31.98 - (32.6)
14.09 18
13 129 Andrea  Giovannini ITA ITA 6:34.12200m - 18.70 - (18.7)
600m - 48.52 - (29.8)
1000m - 1:19.25 - (30.7)
1400m - 1:50.16 - (30.9)
1800m - 2:21.05 - (30.8)
2200m - 2:52.18 - (31.1)
2600m - 3:23.34 - (31.1)
3000m - 3:54.67 - (31.3)
3400m - 4:26.10 - (31.4)
3800m - 4:57.67 - (31.5)
4200m - 5:29.53 - (31.8)
4600m - 6:01.63 - (32.1)
5000m - 6:34.12 - (32.4)
16.23 16
14 165 Jan  Szymanski POL POL 6:35.05200m - 19.19 - (19.1)
600m - 49.64 - (30.4)
1000m - 1:20.33 - (30.7)
1400m - 1:51.04 - (30.7)
1800m - 2:21.75 - (30.7)
2200m - 2:52.41 - (30.6)
2600m - 3:23.83 - (31.4)
3000m - 3:54.50 - (30.6)
3400m - 4:25.18 - (30.6)
3800m - 4:56.51 - (31.3)
4200m - 5:28.80 - (32.3)
4600m - 6:01.95 - (33.1)
5000m - 6:35.05 - (33.1)
17.16 14
15 108 Ted-Jan  Bloemen CAN CAN 6:36.88200m - 19.18 - (19.1)
600m - 49.21 - (30.0)
1000m - 1:19.73 - (30.5)
1400m - 1:50.54 - (30.8)
1800m - 2:21.54 - (30.9)
2200m - 2:52.52 - (30.9)
2600m - 3:23.64 - (31.1)
3000m - 3:54.91 - (31.2)
3400m - 4:26.61 - (31.7)
3800m - 4:58.64 - (32.0)
4200m - 5:31.26 - (32.6)
4600m - 6:03.89 - (32.6)
5000m - 6:36.88 - (32.9)
18.99 12
16 176 Nils  van der Poel SWE SWE 6:40.08200m - 19.05 - (19.0)
600m - 49.38 - (30.3)
1000m - 1:20.53 - (31.1)
1400m - 1:51.97 - (31.4)
1800m - 2:23.10 - (31.1)
2200m - 2:54.83 - (31.7)
2600m - 3:26.84 - (32.0)
3000m - 3:59.08 - (32.2)
3400m - 4:31.47 - (32.3)
3800m - 5:03.75 - (32.2)
4200m - 5:36.05 - (32.3)
4600m - 6:08.13 - (32.0)
5000m - 6:40.08 - (31.9)
22.19 10